QPF
0.01 0.01 0.01 0.02 0.02 0.01 0.01 0.01 0.01 0.01 0.01 0.01 0.01 0.00 0.00 0.00 0.00 0.00 0.00 0.00 0.00 0.00 0.00 0.00 0.00 0.00 0.00 0.00 0.00 0.00 0.00 0.00 0.01 0.01 0.01 0.01 0.02 0.02 0.04 0.09 0.15 0.15 0.13 0.09
0.01 0.01 0.00 0.00 0.00 0.01 0.01 0.01 0.01 0.00 0.00 0.01 0.01 0.00 0.00 0.00 0.00 0.00 0.00 0.00 0.01 0.01 0.00 0.00 0.00 0.00 0.00 0.00 0.00 0.00 0.00 0.00 0.00 0.01 0.01 0.01 0.02 0.02 0.02 0.03 0.05 0.10 0.13 0.14
0.01 0.00 0.00 0.00 0.00 0.01 0.01 0.01 0.01 0.01 0.01 0.01 0.01 0.01 0.01 0.00 0.00 0.00 0.00 0.00 0.01 0.01 0.00 0.00 0.00 0.00 0.00 0.00 0.00 0.00 0.00 0.01 0.01 0.01 0.02 0.03 0.03 0.03 0.03 0.02 0.02 0.04 0.07 0.08
0.01 0.00 0.00 0.00 0.00 0.00 0.00 0.00 0.00 0.01 0.01 0.01 0.01 0.01 0.00 0.00 0.00 0.01 0.00 0.00 0.00 0.01 0.01 0.01 0.00 0.00 0.00 0.00 0.00 0.01 0.01 0.01 0.01 0.02 0.02 0.02 0.02 0.02 0.02 0.02 0.02 0.02 0.04 0.07
0.01 0.00 0.00 0.00 0.00 0.00 0.00 0.00 0.00 0.01 0.02 0.02 0.02 0.01 0.00 0.01 0.01 0.01 0.00 0.00 0.00 0.01 0.01 0.01 0.01 0.00 0.00 0.00 0.00 0.00 0.01 0.01 0.01 0.01 0.02 0.02 0.02 0.02 0.03 0.04 0.03 0.03 0.03 0.05
0.01 0.00 0.00 0.00 0.00 0.00 0.01 0.01 0.02 0.03 0.04 0.04 0.02 0.02 0.01 0.01 0.01 0.00 0.00 0.00 0.00 0.00 0.01 0.01 0.01 0.01 0.01 0.01 0.00 0.00 0.00 0.01 0.01 0.01 0.01 0.02 0.02 0.02 0.03 0.04 0.04 0.04 0.03 0.04
0.01 0.01 0.00 0.00 0.00 0.00 0.01 0.02 0.05 0.06 0.07 0.04 0.01 0.01 0.01 0.00 0.00 0.00 0.00 0.00 0.00 0.01 0.01 0.01 0.01 0.01 0.01 0.01 0.01 0.01 0.01 0.01 0.01 0.01 0.01 0.01 0.02 0.02 0.02 0.03 0.04 0.04 0.04 0.03
0.01 0.01 0.01 0.01 0.01 0.01 0.01 0.02 0.04 0.05 0.03 0.02 0.01 0.01 0.00 0.00 0.00 0.00 0.00 0.00 0.00 0.01 0.01 0.01 0.01 0.01 0.01 0.01 0.01 0.01 0.01 0.01 0.01 0.02 0.02 0.02 0.01 0.02 0.02 0.03 0.04 0.04 0.04 0.03
0.02 0.01 0.00 0.01 0.00 0.01 0.01 0.01 0.02 0.03 0.03 0.01 0.01 0.00 0.00 0.00 0.00 0.00 0.00 0.00 0.00 0.01 0.01 0.01 0.01 0.01 0.01 0.01 0.01 0.01 0.01 0.01 0.01 0.02 0.04 0.03 0.02 0.02 0.02 0.02 0.03 0.03 0.03 0.03
0.03 0.02 0.01 0.01 0.01 0.02 0.01 0.01 0.03 0.05 0.04 0.02 0.01 0.00 0.00 0.00 0.00 0.00 0.00 0.00 0.01 0.01 0.01 0.01 0.01 0.01 0.01 0.01 0.01 0.01 0.01 0.01 0.01 0.02 0.04 0.04 0.03 0.02 0.02 0.03 0.02 0.02 0.02 0.02
0.04 0.03 0.02 0.02 0.02 0.02 0.02 0.03 0.04 0.05 0.04 0.02 0.01 0.00 0.00 0.00 0.00 0.00 0.00 0.01 0.01 0.01 0.01 0.01 0.01 0.01 0.01 0.01 0.01 0.01 0.02 0.01 0.01 0.01 0.03 0.04 0.04 0.03 0.03 0.03 0.03 0.02 0.02 0.02
0.04 0.05 0.02 0.01 0.02 0.01 0.01 0.02 0.03 0.05 0.04 0.02 0.01 0.00 0.00 0.00 0.00 0.00 0.00 0.01 0.01 0.01 0.01 0.01 0.01 0.01 0.01 0.02 0.02 0.02 0.02 0.02 0.02 0.02 0.03 0.04 0.04 0.04 0.04 0.03 0.03 0.02 0.01 0.01
0.05 0.06 0.04 0.02 0.02 0.03 0.04 0.02 0.02 0.03 0.04 0.02 0.01 0.00 0.00 0.00 0.00 0.00 0.00 0.00 0.01 0.01 0.01 0.01 0.01 0.01 0.02 0.02 0.02 0.02 0.01 0.02 0.02 0.02 0.03 0.03 0.03 0.04 0.04 0.03 0.02 0.02 0.01 0.01
0.06 0.06 0.04 0.03 0.02 0.03 0.05 0.05 0.04 0.05 0.05 0.03 0.01 0.00 0.00 0.00 0.00 0.00 0.00 0.00 0.00 0.01 0.01 0.02 0.02 0.01 0.02 0.02 0.02 0.03 0.02 0.02 0.02 0.02 0.03 0.03 0.03 0.03 0.03 0.04 0.02 0.02 0.01 0.01
0.06 0.06 0.03 0.02 0.02 0.02 0.02 0.03 0.04 0.05 0.04 0.02 0.01 0.00 0.00 0.00 0.00 0.00 0.00 0.00 0.00 0.00 0.01 0.01 0.01 0.01 0.02 0.02 0.02 0.03 0.02 0.02 0.02 0.02 0.03 0.04 0.03 0.02 0.02 0.03 0.03 0.02 0.01 0.01
0.05 0.04 0.03 0.03 0.02 0.02 0.03 0.02 0.02 0.03 0.04 0.03 0.01 0.00 0.00 0.00 0.00 0.00 0.00 0.00 0.00 0.00 0.01 0.01 0.01 0.01 0.02 0.02 0.02 0.02 0.02 0.01 0.02 0.03 0.04 0.04 0.03 0.03 0.02 0.02 0.03 0.03 0.02 0.02
0.04 0.03 0.03 0.03 0.02 0.02 0.02 0.01 0.01 0.01 0.01 0.02 0.02 0.01 0.00 0.00 0.00 0.00 0.00 0.00 0.00 0.00 0.01 0.01 0.01 0.01 0.02 0.02 0.02 0.03 0.02 0.02 0.02 0.03 0.04 0.04 0.03 0.02 0.02 0.02 0.02 0.03 0.02 0.01
0.03 0.03 0.05 0.04 0.03 0.04 0.02 0.01 0.01 0.01 0.01 0.01 0.01 0.01 0.00 0.00 0.00 0.01 0.01 0.01 0.01 0.00 0.01 0.01 0.01 0.01 0.01 0.02 0.02 0.02 0.02 0.02 0.03 0.04 0.03 0.03 0.03 0.02 0.02 0.02 0.02 0.02 0.02 0.02
0.02 0.03 0.05 0.05 0.04 0.03 0.02 0.02 0.02 0.02 0.02 0.01 0.01 0.01 0.01 0.00 0.01 0.01 0.01 0.01 0.01 0.00 0.01 0.01 0.01 0.01 0.01 0.02 0.02 0.02 0.02 0.02 0.04 0.04 0.02 0.03 0.02 0.02 0.02 0.02 0.02 0.01 0.02 0.02
0.03 0.04 0.07 0.06 0.06 0.04 0.02 0.01 0.02 0.02 0.03 0.02 0.01 0.01 0.02 0.02 0.01 0.01 0.01 0.01 0.01 0.01 0.01 0.01 0.01 0.01 0.01 0.01 0.02 0.02 0.02 0.02 0.04 0.04 0.02 0.02 0.02 0.02 0.02 0.02 0.02 0.02 0.01 0.01
0.05 0.07 0.07 0.05 0.04 0.03 0.02 0.01 0.01 0.02 0.03 0.01 0.01 0.02 0.02 0.02 0.01 0.01 0.01 0.01 0.01 0.01 0.00 0.01 0.01 0.01 0.01 0.01 0.02 0.03 0.02 0.02 0.04 0.04 0.02 0.02 0.02 0.02 0.03 0.03 0.02 0.02 0.01 0.01
0.03 0.05 0.04 0.03 0.04 0.03 0.01 0.01 0.03 0.03 0.02 0.01 0.01 0.01 0.01 0.01 0.01 0.01 0.01 0.01 0.01 0.01 0.01 0.01 0.01 0.01 0.01 0.01 0.02 0.03 0.03 0.03 0.05 0.04 0.02 0.02 0.02 0.02 0.03 0.03 0.02 0.01 0.01 0.01
0.03 0.04 0.05 0.05 0.04 0.03 0.02 0.02 0.03 0.02 0.02 0.01 0.01 0.00 0.01 0.01 0.01 0.01 0.01 0.01 0.01 0.01 0.01 0.01 0.01 0.02 0.02 0.02 0.02 0.02 0.03 0.03 0.05 0.04 0.03 0.03 0.02 0.02 0.02 0.02 0.02 0.01 0.01 0.01
0.01 0.02 0.03 0.03 0.02 0.02 0.02 0.02 0.02 0.02 0.01 0.01 0.01 0.00 0.01 0.01 0.01 0.01 0.01 0.01 0.01 0.01 0.01 0.02 0.02 0.02 0.03 0.02 0.02 0.02 0.03 0.04 0.05 0.04 0.04 0.04 0.03 0.02 0.02 0.02 0.01 0.01 0.01 0.01
0.01 0.01 0.01 0.01 0.01 0.01 0.01 0.01 0.02 0.02 0.02 0.01 0.01 0.01 0.01 0.00 0.00 0.01 0.01 0.01 0.01 0.01 0.01 0.02 0.02 0.03 0.03 0.03 0.03 0.03 0.03 0.03 0.04 0.04 0.04 0.04 0.03 0.02 0.02 0.01 0.01 0.01 0.01 0.01
0.01 0.01 0.02 0.01 0.01 0.03 0.03 0.02 0.02 0.02 0.02 0.02 0.02 0.02 0.01 0.00 0.00 0.01 0.01 0.01 0.01 0.01 0.01 0.01 0.02 0.02 0.03 0.03 0.03 0.04 0.04 0.03 0.03 0.04 0.04 0.04 0.03 0.02 0.02 0.02 0.02 0.02 0.02 0.02
MSLP
1022.73 1023.02 1023.20 1023.28 1023.24 1023.07 1022.76 1022.30 1021.65 1020.81 1019.80 1018.64 1017.37 1016.04 1014.73 1013.48 1012.34 1011.33 1010.43 1009.64 1008.92 1008.24 1007.56 1006.89 1006.24 1005.64 1005.14 1004.77 1004.58 1004.57 1004.74 1005.06 1005.47 1005.94 1006.41 1006.85 1007.23 1007.58 1007.91 1008.27 1008.68 1009.18 1009.78 1010.50
1023.01 1023.21 1023.32 1023.35 1023.29 1023.15 1022.89 1022.48 1021.90 1021.11 1020.11 1018.91 1017.57 1016.14 1014.70 1013.34 1012.10 1011.02 1010.11 1009.34 1008.66 1008.02 1007.38 1006.72 1006.03 1005.35 1004.73 1004.22 1003.88 1003.74 1003.83 1004.10 1004.52 1005.03 1005.57 1006.09 1006.55 1006.95 1007.30 1007.65 1008.02 1008.47 1009.02 1009.68
1023.25 1023.36 1023.39 1023.38 1023.32 1023.22 1023.03 1022.72 1022.23 1021.51 1020.54 1019.33 1017.92 1016.39 1014.83 1013.34 1012.00 1010.86 1009.93 1009.18 1008.56 1007.99 1007.42 1006.79 1006.09 1005.34 1004.61 1003.96 1003.45 1003.15 1003.10 1003.27 1003.64 1004.14 1004.71 1005.27 1005.79 1006.25 1006.63 1006.99 1007.35 1007.75 1008.25 1008.86
1023.53 1023.54 1023.50 1023.45 1023.41 1023.35 1023.26 1023.05 1022.65 1022.01 1021.07 1019.85 1018.38 1016.75 1015.06 1013.45 1012.01 1010.80 1009.85 1009.13 1008.57 1008.09 1007.60 1007.03 1006.35 1005.57 1004.75 1003.95 1003.27 1002.79 1002.55 1002.58 1002.83 1003.26 1003.81 1004.39 1004.94 1005.44 1005.87 1006.25 1006.61 1007.01 1007.48 1008.03
1023.91 1023.82 1023.71 1023.63 1023.59 1023.58 1023.56 1023.44 1023.14 1022.56 1021.65 1020.42 1018.89 1017.16 1015.37 1013.63 1012.09 1010.82 1009.84 1009.14 1008.64 1008.25 1007.85 1007.36 1006.71 1005.93 1005.03 1004.11 1003.27 1002.58 1002.14 1001.97 1002.06 1002.37 1002.84 1003.39 1003.96 1004.49 1004.97 1005.39 1005.80 1006.21 1006.68 1007.22
1024.41 1024.23 1024.05 1023.93 1023.88 1023.90 1023.92 1023.86 1023.62 1023.08 1022.19 1020.94 1019.37 1017.57 1015.68 1013.85 1012.21 1010.87 1009.87 1009.18 1008.73 1008.41 1008.09 1007.67 1007.07 1006.29 1005.34 1004.32 1003.31 1002.43 1001.77 1001.38 1001.27 1001.42 1001.78 1002.27 1002.82 1003.38 1003.91 1004.40 1004.87 1005.34 1005.85 1006.42
1025.01 1024.75 1024.50 1024.32 1024.24 1024.25 1024.28 1024.24 1024.01 1023.49 1022.61 1021.35 1019.75 1017.90 1015.95 1014.05 1012.35 1010.96 1009.93 1009.23 1008.80 1008.52 1008.26 1007.89 1007.33 1006.55 1005.56 1004.44 1003.29 1002.22 1001.34 1000.73 1000.41 1000.38 1000.59 1001.00 1001.52 1002.10 1002.69 1003.26 1003.82 1004.38 1004.97 1005.59
1025.63 1025.30 1024.98 1024.74 1024.61 1024.56 1024.56 1024.49 1024.25 1023.72 1022.84 1021.58 1019.98 1018.12 1016.16 1014.24 1012.51 1011.09 1010.02 1009.31 1008.86 1008.59 1008.34 1007.98 1007.43 1006.63 1005.60 1004.40 1003.12 1001.88 1000.80 999.97 999.44 999.23 999.30 999.60 1000.08 1000.68 1001.32 1001.99 1002.66 1003.33 1004.02 1004.73
1026.18 1025.79 1025.41 1025.11 1024.91 1024.79 1024.71 1024.57 1024.27 1023.72 1022.83 1021.59 1020.03 1018.22 1016.30 1014.41 1012.70 1011.27 1010.18 1009.43 1008.94 1008.62 1008.34 1007.95 1007.36 1006.53 1005.44 1004.16 1002.76 1001.38 1000.14 999.12 998.40 998.01 997.94 998.15 998.58 999.18 999.87 1000.63 1001.40 1002.19 1002.99 1003.81
1026.56 1026.15 1025.73 1025.37 1025.09 1024.87 1024.69 1024.46 1024.09 1023.50 1022.61 1021.41 1019.92 1018.21 1016.38 1014.58 1012.93 1011.53 1010.43 1009.63 1009.08 1008.67 1008.30 1007.83 1007.17 1006.26 1005.10 1003.74 1002.25 1000.75 999.37 998.20 997.32 996.78 996.58 996.70 997.09 997.69 998.43 999.25 1000.12 1001.01 1001.91 1002.82
1026.73 1026.32 1025.90 1025.49 1025.13 1024.82 1024.53 1024.19 1023.74 1023.10 1022.22 1021.08 1019.70 1018.13 1016.45 1014.79 1013.24 1011.90 1010.80 1009.95 1009.31 1008.79 1008.28 1007.68 1006.90 1005.89 1004.64 1003.20 1001.63 1000.04 998.56 997.27 996.28 995.63 995.33 995.38 995.72 996.30 997.06 997.93 998.86 999.82 1000.79 1001.75
1026.69 1026.33 1025.92 1025.50 1025.09 1024.69 1024.29 1023.85 1023.31 1022.63 1021.76 1020.70 1019.44 1018.03 1016.54 1015.04 1013.63 1012.36 1011.28 1010.38 1009.63 1008.97 1008.31 1007.55 1006.62 1005.49 1004.14 1002.61 1000.98 999.32 997.77 996.41 995.34 994.60 994.23 994.22 994.52 995.08 995.84 996.72 997.68 998.67 999.67 1000.66
1026.52 1026.23 1025.87 1025.46 1025.02 1024.55 1024.05 1023.51 1022.89 1022.17 1021.32 1020.33 1019.20 1017.96 1016.65 1015.33 1014.06 1012.88 1011.82 1010.88 1010.03 1009.22 1008.38 1007.45 1006.36 1005.09 1003.63 1002.02 1000.32 998.62 997.02 995.62 994.50 993.72 993.30 993.24 993.50 994.04 994.78 995.66 996.61 997.60 998.59 999.58
1026.30 1026.11 1025.82 1025.44 1024.98 1024.46 1023.89 1023.26 1022.57 1021.81 1020.96 1020.03 1019.02 1017.93 1016.79 1015.64 1014.50 1013.41 1012.37 1011.39 1010.44 1009.48 1008.47 1007.36 1006.10 1004.69 1003.11 1001.42 999.66 997.92 996.29 994.87 993.72 992.92 992.47 992.39 992.63 993.14 993.87 994.73 995.66 996.62 997.59 998.55
1026.14 1026.05 1025.84 1025.50 1025.04 1024.48 1023.85 1023.14 1022.38 1021.58 1020.73 1019.84 1018.91 1017.94 1016.95 1015.93 1014.90 1013.87 1012.85 1011.83 1010.78 1009.69 1008.52 1007.23 1005.82 1004.26 1002.56 1000.78 998.96 997.18 995.52 994.09 992.93 992.12 991.67 991.57 991.81 992.32 993.04 993.89 994.81 995.75 996.69 997.63
1026.11 1026.10 1025.95 1025.65 1025.19 1024.60 1023.91 1023.14 1022.33 1021.48 1020.62 1019.75 1018.87 1017.99 1017.08 1016.16 1015.21 1014.22 1013.20 1012.13 1011.00 1009.79 1008.47 1007.03 1005.46 1003.75 1001.94 1000.06 998.16 996.33 994.65 993.19 992.03 991.22 990.78 990.70 990.95 991.48 992.22 993.09 994.02 994.97 995.91 996.83
1026.21 1026.26 1026.14 1025.85 1025.39 1024.77 1024.03 1023.21 1022.34 1021.46 1020.58 1019.71 1018.87 1018.03 1017.18 1016.31 1015.40 1014.43 1013.40 1012.28 1011.07 1009.74 1008.30 1006.71 1004.99 1003.15 1001.22 999.23 997.25 995.35 993.62 992.13 990.96 990.15 989.73 989.69 989.99 990.57 991.36 992.29 993.27 994.26 995.24 996.19
1026.40 1026.45 1026.33 1026.02 1025.52 1024.88 1024.11 1023.25 1022.35 1021.44 1020.55 1019.69 1018.86 1018.04 1017.22 1016.38 1015.48 1014.51 1013.45 1012.28 1010.99 1009.57 1008.01 1006.30 1004.45 1002.48 1000.42 998.32 996.23 994.25 992.45 990.92 989.73 988.92 988.52 988.53 988.89 989.56 990.45 991.47 992.55 993.64 994.71 995.74
1026.57 1026.57 1026.39 1026.03 1025.50 1024.81 1024.02 1023.15 1022.25 1021.35 1020.47 1019.63 1018.82 1018.03 1017.23 1016.39 1015.49 1014.50 1013.41 1012.19 1010.84 1009.34 1007.68 1005.87 1003.90 1001.81 999.63 997.41 995.22 993.13 991.25 989.66 988.43 987.61 987.24 987.29 987.74 988.51 989.53 990.69 991.91 993.14 994.33 995.47
1026.58 1026.49 1026.22 1025.78 1025.20 1024.48 1023.69 1022.84 1021.97 1021.12 1020.30 1019.51 1018.75 1017.99 1017.21 1016.38 1015.47 1014.47 1013.35 1012.09 1010.69 1009.13 1007.40 1005.50 1003.45 1001.26 998.97 996.64 994.34 992.15 990.18 988.52 987.24 986.41 986.05 986.15 986.67 987.56 988.71 990.02 991.40 992.79 994.13 995.41
1026.33 1026.11 1025.73 1025.21 1024.57 1023.85 1023.07 1022.28 1021.50 1020.74 1020.01 1019.31 1018.63 1017.93 1017.19 1016.38 1015.48 1014.47 1013.33 1012.05 1010.61 1009.01 1007.24 1005.29 1003.18 1000.93 998.56 996.15 993.76 991.49 989.43 987.70 986.37 985.51 985.15 985.28 985.87 986.85 988.12 989.57 991.11 992.66 994.16 995.59
1025.74 1025.39 1024.90 1024.30 1023.63 1022.92 1022.20 1021.50 1020.84 1020.22 1019.63 1019.06 1018.48 1017.87 1017.19 1016.42 1015.54 1014.53 1013.39 1012.10 1010.66 1009.05 1007.27 1005.31 1003.19 1000.91 998.51 996.06 993.62 991.29 989.18 987.39 986.01 985.11 984.74 984.88 985.50 986.55 987.91 989.47 991.14 992.82 994.46 996.01
1024.82 1024.35 1023.77 1023.12 1022.44 1021.78 1021.15 1020.58 1020.08 1019.62 1019.20 1018.78 1018.33 1017.82 1017.21 1016.49 1015.64 1014.65 1013.52 1012.25 1010.82 1009.24 1007.49 1005.57 1003.47 1001.23 998.86 996.41 993.98 991.63 989.50 987.68 986.27 985.34 984.94 985.07 985.70 986.76 988.16 989.79 991.54 993.31 995.04 996.69
1023.63 1023.08 1022.44 1021.78 1021.13 1020.54 1020.04 1019.63 1019.30 1019.03 1018.78 1018.51 1018.19 1017.78 1017.25 1016.58 1015.76 1014.80 1013.69 1012.44 1011.06 1009.53 1007.85 1006.00 1004.00 1001.84 999.55 997.19 994.81 992.52 990.41 988.60 987.18 986.23 985.80 985.89 986.49 987.53 988.92 990.56 992.33 994.14 995.92 997.62
1022.29 1021.69 1021.04 1020.41 1019.84 1019.36 1019.00 1018.75 1018.60 1018.50 1018.42 1018.30 1018.09 1017.76 1017.29 1016.66 1015.86 1014.92 1013.84 1012.63 1011.30 1009.84 1008.26 1006.53 1004.66 1002.64 1000.50 998.27 996.03 993.84 991.81 990.06 988.66 987.71 987.25 987.30 987.84 988.82 990.16 991.75 993.49 995.29 997.06 998.77
1020.91 1020.32 1019.72 1019.16 1018.69 1018.35 1018.14 1018.06 1018.07 1018.12 1018.17 1018.15 1018.03 1017.75 1017.31 1016.70 1015.91 1014.98 1013.92 1012.75 1011.48 1010.11 1008.64 1007.06 1005.35 1003.51 1001.56 999.53 997.46 995.43 993.54 991.88 990.55 989.63 989.16 989.16 989.64 990.54 991.78 993.29 994.95 996.68 998.42 1000.09
Thickness
5577 5567 5564 5568 5571 5573 5571 5568 5566 5571 5576 5572 5571 5575 5581 5583 5581 5580 5579 5579 5579 5580 5581 5580 5579 5579 5577 5576 5575 5574 5573 5573 5572 5571 5570 5570 5570 5571 5572 5573 5574 5574 5574 5575
5559 5557 5568 5569 5566 5564 5562 5558 5558 5563 5566 5563 5561 5566 5574 5577 5577 5577 5576 5574 5573 5572 5571 5571 5570 5569 5568 5567 5566 5566 5565 5565 5565 5564 5563 5562 5562 5562 5563 5564 5565 5566 5566 5566
5554 5560 5564 5561 5556 5554 5552 5549 5550 5551 5552 5551 5549 5554 5564 5571 5571 5571 5571 5570 5568 5567 5565 5563 5562 5560 5559 5559 5558 5559 5557 5557 5556 5555 5554 5553 5553 5553 5553 5555 5556 5557 5558 5558
5546 5553 5554 5551 5548 5546 5542 5547 5545 5542 5534 5528 5534 5530 5553 5559 5560 5562 5562 5560 5559 5559 5558 5555 5555 5553 5552 5552 5550 5550 5549 5548 5548 5547 5546 5545 5545 5544 5546 5547 5547 5548 5549 5549
5538 5543 5543 5542 5543 5540 5537 5538 5535 5531 5523 5515 5520 5516 5539 5548 5550 5555 5556 5554 5553 5552 5550 5548 5547 5546 5545 5544 5542 5540 5540 5540 5539 5539 5538 5537 5537 5537 5537 5538 5538 5539 5540 5541
5530 5534 5535 5535 5535 5533 5528 5524 5517 5506 5502 5504 5516 5511 5528 5537 5548 5552 5552 5548 5546 5544 5542 5540 5538 5537 5535 5533 5532 5531 5530 5530 5530 5530 5530 5530 5530 5529 5529 5529 5529 5530 5531 5531
5516 5521 5523 5524 5520 5518 5515 5504 5493 5491 5483 5499 5511 5508 5526 5541 5545 5546 5545 5541 5538 5535 5532 5530 5528 5527 5525 5524 5522 5522 5521 5521 5522 5522 5522 5522 5522 5522 5521 5521 5521 5522 5521 5522
5497 5501 5511 5512 5511 5505 5502 5500 5490 5489 5485 5494 5500 5502 5525 5535 5535 5536 5535 5532 5529 5526 5524 5522 5520 5518 5517 5515 5514 5513 5513 5513 5513 5514 5514 5514 5514 5514 5514 5513 5513 5514 5513 5513
5485 5492 5502 5504 5505 5502 5494 5487 5491 5480 5473 5476 5490 5500 5518 5527 5525 5525 5523 5522 5520 5518 5517 5514 5512 5510 5509 5507 5506 5505 5504 5504 5505 5506 5506 5506 5506 5506 5505 5505 5504 5504 5504 5504
5477 5475 5486 5490 5493 5492 5489 5483 5471 5469 5473 5479 5488 5491 5507 5517 5517 5515 5513 5512 5511 5510 5508 5506 5503 5501 5500 5498 5497 5496 5496 5496 5497 5497 5497 5498 5497 5497 5497 5496 5495 5495 5494 5494
5466 5462 5467 5473 5476 5477 5474 5472 5468 5461 5462 5469 5472 5495 5513 5514 5514 5509 5507 5505 5502 5501 5500 5497 5494 5492 5490 5489 5488 5487 5487 5487 5488 5488 5488 5488 5487 5487 5487 5487 5486 5485 5485 5484
5453 5446 5446 5458 5467 5470 5469 5467 5460 5460 5458 5455 5460 5487 5508 5504 5504 5503 5499 5496 5494 5492 5490 5487 5485 5482 5481 5479 5479 5478 5478 5479 5479 5479 5478 5478 5478 5478 5477 5477 5476 5476 5475 5474
5442 5435 5438 5449 5452 5453 5455 5457 5454 5450 5448 5445 5452 5482 5496 5493 5494 5493 5490 5487 5484 5482 5479 5477 5475 5473 5472 5471 5470 5470 5470 5470 5470 5469 5469 5468 5467 5467 5467 5467 5467 5466 5465 5464
5437 5426 5431 5444 5451 5443 5441 5446 5447 5444 5442 5444 5456 5475 5485 5483 5482 5482 5480 5478 5475 5473 5471 5469 5467 5465 5464 5463 5462 5461 5461 5461 5461 5460 5459 5458 5458 5458 5458 5458 5457 5457 5455 5453
5422 5416 5417 5426 5435 5435 5437 5441 5440 5440 5444 5445 5459 5464 5479 5476 5472 5472 5471 5469 5467 5466 5464 5463 5460 5458 5456 5455 5454 5453 5453 5453 5452 5451 5450 5449 5449 5449 5448 5448 5448 5447 5445 5444
5410 5406 5405 5414 5427 5428 5431 5438 5439 5440 5441 5444 5451 5462 5473 5468 5463 5461 5461 5461 5461 5459 5458 5457 5454 5452 5449 5447 5446 5445 5445 5444 5443 5442 5441 5440 5439 5439 5439 5438 5438 5436 5435 5433
5398 5395 5399 5407 5413 5418 5421 5435 5437 5435 5437 5440 5445 5460 5460 5457 5457 5457 5455 5455 5454 5453 5452 5450 5448 5446 5444 5441 5439 5437 5437 5436 5435 5434 5432 5431 5430 5429 5429 5428 5427 5426 5425 5423
5391 5390 5389 5393 5398 5406 5432 5434 5435 5435 5438 5439 5444 5450 5450 5451 5451 5449 5449 5448 5446 5445 5444 5443 5440 5438 5436 5433 5431 5430 5429 5427 5427 5426 5424 5422 5421 5420 5419 5418 5417 5416 5415 5414
5389 5386 5383 5385 5391 5404 5422 5426 5423 5422 5428 5433 5435 5439 5437 5437 5436 5437 5442 5441 5440 5438 5437 5435 5432 5430 5427 5425 5424 5423 5421 5420 5419 5417 5415 5413 5412 5411 5410 5410 5408 5407 5406 5405
5378 5378 5378 5378 5385 5393 5418 5420 5417 5417 5415 5426 5426 5427 5425 5427 5426 5432 5433 5431 5430 5429 5427 5425 5423 5421 5419 5418 5417 5415 5414 5413 5412 5411 5408 5406 5404 5403 5402 5401 5400 5399 5397 5396
5365 5366 5370 5372 5377 5390 5406 5406 5409 5404 5413 5418 5417 5417 5417 5419 5421 5423 5421 5419 5419 5419 5417 5415 5413 5412 5411 5410 5409 5407 5406 5405 5404 5403 5401 5399 5397 5395 5394 5393 5392 5390 5389 5387
5360 5357 5357 5360 5367 5385 5398 5395 5397 5401 5406 5407 5408 5409 5410 5411 5411 5411 5410 5410 5409 5408 5407 5406 5404 5402 5402 5401 5400 5399 5397 5397 5396 5396 5394 5391 5389 5387 5387 5385 5383 5381 5379 5377
5356 5363 5363 5367 5381 5389 5388 5390 5393 5393 5396 5399 5400 5402 5403 5402 5403 5402 5401 5400 5400 5399 5398 5397 5395 5393 5392 5392 5391 5390 5389 5388 5388 5387 5386 5383 5381 5380 5378 5376 5375 5373 5371 5369
5353 5356 5357 5361 5374 5380 5382 5383 5385 5387 5389 5392 5394 5395 5396 5395 5395 5394 5393 5391 5390 5389 5388 5387 5386 5384 5383 5382 5382 5381 5381 5380 5379 5378 5377 5375 5374 5372 5370 5369 5368 5365 5363 5361
5354 5350 5350 5356 5368 5373 5379 5378 5380 5382 5384 5385 5386 5388 5389 5388 5386 5386 5384 5383 5381 5380 5379 5378 5377 5376 5375 5374 5373 5373 5373 5372 5370 5370 5369 5368 5366 5365 5363 5361 5359 5357 5355 5354
5350 5348 5350 5361 5368 5367 5373 5375 5374 5374 5376 5378 5378 5380 5381 5381 5379 5377 5375 5374 5372 5371 5370 5369 5367 5366 5366 5365 5365 5364 5365 5363 5362 5362 5361 5360 5358 5357 5355 5353 5351 5350 5349 5348